Wind_Speed
15 15 15 14 13 13 12 11 11 11 11 10 10 9 8 8 7 7 6 6 6 6 5 5 4 4 4 4 3 3 3 3 3 3 4 4 3 3 3 3 4 3 3
16 16 16 15 14 14 14 13 12 12 12 12 11 10 10 9 8 8 8 8 8 7 7 6 6 5 5 5 5 5 4 4 4 4 5 5 5 4 4 4 5 5 5
17 17 17 17 16 15 14 14 14 14 13 13 13 12 11 11 10 10 9 9 9 9 8 8 7 7 6 6 6 6 6 5 6 6 6 6 6 6 6 6 6 6 6
18 18 18 18 17 17 16 15 15 15 14 14 14 13 13 12 11 11 11 11 11 11 10 9 9 9 8 8 8 8 7 7 7 7 7 7 7 7 7 7 7 7 6
20 19 18 19 18 18 17 17 17 16 16 15 15 15 15 14 13 12 12 12 12 12 12 11 11 10 10 9 9 9 8 8 8 8 8 8 8 8 9 9 8 8 8
21 21 21 20 20 20 19 19 18 18 17 17 17 16 16 16 15 15 14 14 14 14 14 14 13 12 12 12 11 11 10 10 10 9 9 9 9 9 10 10 10 10 10
23 23 22 22 22 21 21 20 20 19 19 19 18 18 18 17 17 17 17 16 16 17 16 16 16 15 15 15 14 13 12 12 12 11 11 10 10 10 10 11 11 11 11
24 24 24 24 23 23 22 21 21 21 21 21 21 20 20 20 19 19 19 19 18 18 18 18 17 17 17 16 16 15 14 14 13 13 13 12 12 11 12 12 12 12 12
26 26 25 25 25 24 24 23 23 23 22 22 22 21 21 22 21 21 21 22 21 20 20 19 19 19 18 18 18 17 17 16 15 15 14 14 13 13 13 13 13 13 13
28 27 26 26 27 26 26 25 25 24 24 23 23 22 23 23 23 23 23 22 22 22 22 21 21 20 20 20 19 19 18 18 17 16 16 15 15 15 15 15 15 14 14
29 28 28 27 28 28 28 27 26 25 25 25 25 24 24 24 24 24 24 24 23 23 23 23 22 22 22 21 21 21 20 20 19 18 18 18 17 17 16 16 16 16 16
29 29 29 29 29 29 28 28 28 27 27 27 26 26 26 26 25 25 25 25 25 24 24 24 24 23 23 23 23 22 22 21 21 20 20 20 20 19 19 18 18 18 18
30 30 30 30 30 30 30 29 29 29 29 29 28 27 27 27 27 27 27 27 27 26 25 25 24 24 24 24 24 24 24 23 23 22 22 22 22 21 21 20 20 20 20
29 30 31 31 31 31 30 31 31 31 31 30 30 29 29 29 29 28 28 28 28 28 27 27 26 25 25 25 25 25 25 25 25 24 24 24 23 23 22 22 22 22 22
30 31 32 32 32 32 32 32 32 32 32 31 31 31 30 30 30 30 29 30 29 29 28 28 27 27 27 27 26 26 26 26 27 27 26 26 25 25 24 24 24 24 24
32 33 33 34 33 33 34 33 33 33 33 33 33 32 32 31 31 31 31 31 31 30 30 29 29 28 28 28 29 28 28 28 28 29 28 28 27 27 26 26 26 25 26
33 34 34 35 35 35 34 35 34 34 34 34 34 34 33 33 33 32 32 32 32 32 32 31 31 30 30 30 30 30 30 30 30 30 30 30 30 29 29 28 28 28 28
35 35 35 35 36 36 36 36 35 35 35 35 35 35 35 34 34 34 34 34 34 34 34 33 33 33 32 32 32 32 32 32 32 32 32 32 31 31 30 30 30 30 30
36 36 37 37 37 37 38 37 37 37 37 37 37 37 36 36 36 36 36 36 36 35 35 34 34 34 34 34 34 34 34 34 34 34 34 34 33 33 33 33 32 32 32
36 37 38 38 38 38 39 39 39 39 38 38 38 37 37 38 38 37 37 37 37 37 37 37 36 36 36 36 36 36 36 36 36 36 36 36 36 36 36 36 35 35 35
36 36 37 38 39 39 39 40 41 40 40 39 40 40 39 39 39 39 39 39 39 39 39 39 38 38 38 39 39 38 38 38 38 38 38 38 37 37 37 38 37 37 37
36 37 37 38 39 40 40 41 41 41 40 41 42 42 42 41 41 41 41 40 41 41 40 40 40 40 40 40 40 40 40 39 39 39 39 38 39 39 39 39 39 39 39
37 37 38 38 39 40 41 41 42 42 41 42 43 44 43 43 43 43 43 43 43 42 42 42 42 42 42 41 41 41 41 41 40 40 40 40 41 41 40 40 41 41 41
38 38 38 39 40 40 41 42 43 45 44 43 44 44 44 44 45 45 45 44 44 44 44 44 44 44 44 44 43 42 43 43 42 42 42 42 42 42 42 42 43 43 42
39 40 40 40 41 41 42 42 43 45 46 45 45 45 45 46 46 46 46 45 46 46 46 46 46 46 46 45 45 45 45 45 45 45 44 44 44 44 43 43 44 45 45
40 41 42 42 42 43 43 44 44 46 47 47 46 46 47 46 47 47 47 46 47 47 47 48 47 47 48 47 47 46 46 46 46 46 46 46 45 45 45 45 45 46 46
Wind_Direction
245 242 239 238 238 238 238 237 235 234 234 235 234 234 237 239 240 243 246 248 249 249 252 262 256 253 256 261 264 269 269 268 268 268 265 265 272 279 280 279 272 260 253
245 242 239 239 240 241 240 238 236 237 237 238 236 236 238 241 246 247 248 253 253 254 254 260 259 256 260 263 267 268 266 264 266 263 263 267 270 274 275 272 271 266 268
246 243 243 241 242 240 240 239 239 240 240 240 239 239 241 244 246 249 250 254 254 253 256 261 260 258 261 262 263 264 264 263 259 259 261 266 270 271 272 271 271 270 271
246 242 241 242 243 241 240 240 241 241 242 241 241 242 243 245 247 249 252 253 254 254 256 258 256 257 259 259 262 263 263 261 259 258 261 264 267 269 269 268 270 268 266
244 242 241 242 243 243 242 241 242 243 244 245 244 244 244 247 250 251 254 255 256 255 256 256 256 255 257 259 261 263 262 259 259 260 261 264 265 267 268 268 268 268 268
245 244 243 243 244 245 244 242 243 245 245 246 245 245 245 248 249 251 254 256 257 256 256 256 256 256 258 259 261 263 263 262 263 263 263 264 266 267 266 266 266 268 270
246 245 245 245 244 244 245 243 242 244 246 247 247 247 247 248 250 251 253 257 258 258 258 258 257 257 258 258 260 261 261 263 263 263 263 265 267 266 264 266 268 267 268
247 246 246 245 244 245 246 246 244 244 246 248 248 248 248 248 249 251 253 255 255 256 257 259 259 259 258 257 258 259 259 260 260 260 262 263 263 264 266 267 268 268 268
248 248 247 245 245 246 246 246 245 245 246 247 249 249 248 249 250 252 253 255 255 256 257 258 259 261 259 256 257 258 258 259 260 259 261 262 261 263 266 267 268 269 268
247 247 247 246 246 247 247 247 246 246 247 247 248 249 250 252 253 253 254 256 257 257 257 258 259 259 257 257 257 258 259 260 259 259 260 260 260 261 264 265 267 268 268
246 246 247 247 247 248 248 247 246 246 247 248 249 249 251 252 253 253 254 256 257 256 256 257 258 256 256 257 257 257 258 259 259 259 260 260 260 261 262 264 265 266 267
247 246 246 246 246 247 248 247 246 247 248 249 249 250 251 252 253 253 254 255 256 256 257 257 256 256 257 256 256 257 257 258 258 258 259 260 261 262 262 263 263 264 266
245 245 245 245 245 246 246 247 247 248 248 249 249 250 250 250 252 253 254 255 256 256 257 257 257 256 256 256 256 256 257 257 257 258 258 258 260 261 262 263 263 263 265
244 245 245 245 245 246 246 247 246 247 248 248 248 249 250 251 252 252 254 255 256 257 256 257 257 257 257 256 256 257 258 258 258 258 257 258 259 260 262 263 263 264 264
242 242 244 245 245 245 246 247 246 246 247 248 248 249 250 251 253 253 254 255 255 256 256 257 258 258 258 256 256 257 258 259 259 257 258 258 258 260 261 262 262 263 264
243 243 243 244 246 246 246 246 246 247 248 249 250 250 251 253 254 254 254 256 256 256 257 257 257 257 257 257 257 257 258 259 259 257 258 258 258 259 261 262 263 263 264
245 245 245 245 246 247 248 248 248 247 247 249 251 251 253 254 255 255 255 256 255 256 257 257 258 258 258 258 258 259 259 259 260 259 259 260 260 260 261 261 262 263 263
246 246 247 247 248 248 249 249 248 248 249 249 250 252 253 254 255 256 256 256 256 257 257 257 258 259 259 259 259 259 260 260 260 260 260 261 260 260 261 261 262 262 263
248 248 248 249 250 250 250 250 251 251 251 251 251 252 252 253 254 255 257 256 256 257 257 258 258 258 258 259 259 260 261 261 262 261 261 261 261 261 261 262 262 262 263
251 251 250 250 250 251 251 250 251 252 252 252 251 252 252 253 254 255 256 257 257 257 257 257 257 258 258 258 259 260 261 262 262 262 262 262 262 262 262 262 262 263 263
251 252 251 251 251 251 252 251 251 252 253 252 252 253 252 254 255 254 255 256 257 257 257 257 257 258 259 259 259 260 261 262 262 262 262 262 262 262 263 263 262 262 263
252 253 253 252 252 251 251 251 251 251 252 253 254 253 253 254 255 256 256 256 257 258 259 259 259 259 260 260 260 260 260 261 262 262 262 262 262 263 264 264 263 262 262
253 253 253 253 252 252 252 252 251 250 251 252 253 253 254 255 255 257 257 257 257 258 259 260 259 259 260 260 261 261 261 261 261 262 262 263 263 264 264 264 263 263 263
254 254 254 254 254 253 253 253 253 251 251 253 253 255 255 255 255 256 257 257 257 258 259 260 260 260 260 260 261 262 262 262 261 261 262 263 263 264 264 264 263 263 263
254 253 254 255 255 254 254 254 255 254 253 254 254 254 255 255 256 256 257 257 258 259 259 259 260 260 261 261 262 262 262 262 262 262 262 263 263 263 264 264 263 263 263
254 254 254 255 256 256 255 256 256 255 254 254 255 255 256 256 257 256 257 258 259 259 259 260 260 261 262 261 262 262 262 262 262 262 262 262 263 263 264 264 264 264 264
Height
5821 5822 5823 5825 5826 5827 5828 5829 5831 5832 5833 5834 5835 5836 5837 5838 5839 5840 5842 5842 5843 5844 5845 5846 5847 5847 5848 5849 5850 5851 5851 5852 5853 5854 5854 5855 5856 5856 5857 5857 5858 5858 5858
5818 5819 5821 5822 5824 5825 5826 5827 5829 5830 5831 5832 5833 5835 5836 5837 5838 5839 5840 5841 5842 5843 5844 5844 5846 5847 5847 5848 5849 5850 5850 5851 5852 5853 5853 5854 5855 5855 5856 5856 5857 5857 5857
5815 5817 5818 5819 5821 5822 5824 5825 5826 5828 5829 5830 5831 5833 5834 5835 5836 5837 5838 5839 5840 5841 5842 5843 5844 5845 5846 5847 5848 5849 5849 5850 5851 5852 5852 5853 5853 5854 5855 5855 5856 5856 5857
5812 5813 5815 5816 5818 5819 5821 5822 5824 5825 5826 5828 5829 5830 5832 5833 5834 5835 5836 5837 5838 5839 5840 5841 5842 5843 5844 5845 5846 5847 5848 5848 5849 5850 5851 5851 5852 5853 5853 5854 5854 5855 5855
5809 5810 5812 5813 5815 5816 5818 5819 5821 5822 5824 5825 5826 5828 5829 5830 5831 5833 5834 5835 5836 5837 5838 5839 5840 5841 5842 5843 5844 5845 5846 5847 5848 5848 5849 5850 5850 5851 5851 5852 5853 5853 5854
5805 5807 5808 5809 5811 5813 5814 5816 5818 5819 5821 5822 5823 5825 5826 5827 5829 5830 5831 5832 5833 5835 5836 5837 5838 5838 5840 5841 5842 5843 5844 5845 5845 5846 5847 5848 5848 5849 5849 5850 5851 5852 5852
5801 5803 5804 5805 5807 5809 5810 5812 5814 5816 5817 5819 5820 5822 5823 5824 5826 5827 5828 5830 5831 5832 5832 5833 5835 5835 5836 5837 5839 5840 5841 5842 5843 5844 5845 5845 5846 5847 5847 5848 5849 5849 5850
5796 5798 5800 5801 5803 5804 5806 5808 5810 5811 5813 5815 5816 5818 5820 5821 5822 5823 5825 5826 5827 5828 5829 5830 5831 5832 5833 5834 5835 5837 5838 5839 5840 5841 5842 5843 5844 5844 5845 5846 5846 5847 5848
5791 5793 5795 5797 5798 5800 5801 5803 5805 5807 5809 5810 5812 5814 5815 5817 5818 5819 5820 5822 5823 5824 5825 5826 5828 5829 5829 5830 5832 5833 5834 5836 5837 5838 5839 5840 5841 5842 5842 5843 5843 5844 5845
5785 5787 5789 5791 5793 5795 5797 5798 5800 5802 5804 5806 5807 5809 5811 5812 5813 5815 5816 5817 5818 5820 5821 5822 5823 5824 5825 5826 5828 5829 5830 5832 5833 5834 5835 5836 5837 5838 5839 5840 5840 5841 5842
5779 5781 5783 5786 5788 5790 5792 5793 5795 5797 5799 5800 5802 5804 5805 5807 5808 5809 5811 5812 5814 5815 5816 5817 5819 5820 5821 5822 5823 5825 5826 5828 5829 5830 5831 5833 5834 5835 5836 5836 5837 5838 5838
5773 5775 5777 5780 5782 5784 5786 5788 5789 5791 5793 5795 5796 5798 5800 5801 5803 5804 5805 5807 5808 5809 5811 5812 5814 5815 5816 5818 5819 5820 5821 5823 5824 5826 5827 5828 5829 5830 5831 5832 5833 5834 5834
5767 5769 5771 5773 5775 5778 5780 5781 5783 5785 5787 5788 5790 5792 5794 5795 5797 5798 5799 5801 5802 5804 5805 5807 5808 5810 5811 5813 5814 5815 5816 5817 5819 5820 5822 5823 5824 5826 5827 5827 5828 5829 5830
5760 5762 5764 5766 5768 5770 5773 5775 5777 5779 5780 5782 5784 5785 5787 5789 5790 5792 5793 5795 5796 5798 5799 5801 5802 5804 5805 5807 5808 5809 5811 5812 5813 5815 5816 5818 5819 5820 5821 5822 5823 5824 5825
5752 5754 5757 5758 5761 5763 5765 5767 5769 5771 5773 5775 5777 5779 5781 5782 5784 5786 5787 5788 5790 5791 5793 5794 5796 5797 5799 5801 5802 5803 5805 5806 5807 5809 5810 5812 5813 5814 5815 5817 5818 5818 5819
5744 5747 5749 5751 5753 5755 5757 5759 5761 5764 5766 5768 5770 5772 5774 5776 5777 5779 5780 5782 5783 5784 5786 5788 5789 5791 5792 5794 5795 5797 5798 5799 5801 5802 5804 5805 5807 5808 5809 5810 5811 5812 5813
5736 5739 5741 5743 5745 5747 5749 5751 5753 5756 5758 5760 5762 5764 5766 5768 5769 5771 5773 5774 5776 5777 5779 5780 5782 5784 5785 5787 5788 5790 5791 5793 5794 5796 5797 5798 5800 5801 5803 5804 5804 5806 5807
5728 5730 5732 5734 5736 5738 5741 5742 5745 5747 5750 5752 5754 5756 5758 5760 5761 5763 5765 5767 5768 5770 5771 5773 5774 5776 5778 5779 5781 5783 5784 5785 5787 5788 5790 5791 5793 5794 5795 5796 5797 5798 5799
5719 5721 5723 5725 5727 5730 5732 5733 5736 5738 5741 5743 5745 5747 5749 5751 5753 5755 5757 5758 5760 5762 5763 5765 5767 5768 5770 5771 5773 5775 5776 5777 5779 5780 5782 5783 5785 5786 5787 5788 5789 5791 5792
5709 5712 5714 5716 5718 5720 5722 5725 5727 5729 5732 5734 5736 5738 5740 5743 5745 5747 5748 5750 5751 5753 5755 5756 5758 5760 5761 5763 5765 5766 5767 5769 5770 5772 5773 5775 5776 5777 5779 5780 5781 5782 5784
5700 5702 5704 5706 5708 5710 5712 5715 5717 5720 5722 5725 5727 5729 5731 5734 5735 5737 5739 5741 5742 5744 5746 5747 5749 5751 5752 5754 5755 5757 5758 5760 5761 5763 5764 5765 5767 5768 5769 5771 5772 5773 5775
5690 5693 5695 5697 5699 5700 5703 5705 5708 5710 5713 5715 5717 5720 5722 5724 5726 5728 5729 5731 5733 5735 5736 5738 5739 5741 5742 5744 5746 5747 5749 5751 5752 5753 5755 5756 5757 5758 5760 5761 5762 5764 5765
5681 5683 5685 5687 5689 5690 5692 5694 5697 5700 5702 5705 5707 5709 5712 5714 5716 5717 5719 5721 5723 5725 5726 5728 5729 5731 5733 5734 5735 5737 5739 5741 5742 5743 5744 5746 5747 5748 5749 5750 5752 5753 5755
5672 5673 5675 5677 5679 5680 5682 5684 5686 5689 5691 5694 5696 5699 5701 5702 5705 5706 5708 5710 5712 5714 5716 5717 5718 5720 5721 5723 5724 5726 5728 5730 5731 5733 5734 5735 5736 5737 5739 5740 5741 5742 5744
5662 5664 5666 5667 5669 5670 5672 5673 5675 5678 5680 5682 5685 5687 5689 5691 5693 5695 5696 5698 5700 5702 5704 5706 5707 5709 5710 5712 5713 5715 5716 5718 5719 5721 5724 5724 5725 5726 5727 5728 5729 5731 5732
5652 5653 5655 5657 5658 5659 5661 5662 5664 5666 5668 5671 5673 5675 5678 5679 5681 5683 5685 5687 5688 5690 5692 5694 5695 5697 5698 5700 5701 5703 5704 5706 5708 5709 5711 5713 5714 5714 5715 5716 5717 5719 5720